Location: Groß Eilstorf
(52.8200°N, 9.4552°E)
Time: 10:51:01
(UTC+00:00)

Cosmos 2333 Rocket - Pass Details

Date: 15 May 2026
Orbit: 840 x 862 km, 70.8° (Epoch: 6 June)

Event Time Altitude Azimuth Distance (km) Brightness Sun altitude
Rises 21:34:43 0° 321° (NW) 3,424 7.0 -14.7°
Reaches altitude 10° 21:37:37 10° 308° (NW) 2,487 5.6 -14.9°
Maximum altitude 21:42:00 23° 257° (WSW) 1,723 3.9 -15.2°
Drops below altitude 10° 21:46:24 10° 207° (SSW) 2,485 4.3 -15.4°
Enters shadow 21:46:30 10° 206° (SSW) 2,514 4.3 -15.4°
